DW6743 Weather Reports


time (UTC)temp
C
wind
direction
speed
KPH
gust
KPH
rain 1hr
cm
rain 24hr
cm
rain mn
cm
humidity
%
barometer
mb
20260502181804 13 300 1.6 3.2 0.00 0.00 0.00 76 1010.7
20260502181601 13 0 0.0 8.0 0.00 0.00 0.00 75 1010.7
20260502181306 13 300 3.2 4.8 0.00 0.00 0.00 75 1010.8
20260502180804 13 287 3.2 4.8 0.00 0.00 0.00 75 1011.0
20260502180304 13 337 4.8 12.9 0.00 0.00 0.00 74 1010.9
20260502180123 13 337 4.8 12.9 0.00 0.00 0.00 74 1010.9
20260502164304 17 263 32.2 46.7 0.00 0.00 0.00 57 1010.8
20260502163101 18 254 27.4 45.1 0.00 0.00 0.00 52 1010.9
20260502161600 19 255 29.0 46.7 0.00 0.00 0.00 50 1011.1
20260502161304 19 263 27.4 41.8 0.00 0.00 0.00 50 1011.2
20260502160804 19 264 29.0 46.7 0.00 0.00 0.00 50 1011.2
20260502151612 19 255 29.0 40.2 0.00 0.00 0.00 52 1011.8
20260502151304 20 246 27.4 38.6 0.00 0.00 0.00 53 1011.9
20260502150804 20 243 24.1 32.2 0.00 0.00 0.00 53 1012.0
20260502150305 19 254 24.1 40.2 0.00 0.00 0.00 53 1012.1
20260502130304 18 259 22.5 38.6 0.00 0.00 0.00 60 1013.7
20260502130109 18 243 25.7 38.6 0.00 0.00 0.00 59 1013.5
20260502123304 18 254 27.4 32.2 0.00 0.00 0.00 60 1013.9
20260502123105 18 239 22.5 32.2 0.00 0.00 0.00 59 1013.8
20260502121804 18 255 25.7 32.2 0.00 0.00 0.00 60 1013.9
20260502121608 18 243 25.7 32.2 0.00 0.00 0.00 60 1013.9
20260502121304 18 253 25.7 32.2 0.00 0.00 0.00 60 1014.0
20260502120804 18 250 24.1 32.2 0.00 0.00 0.00 61 1014.1
20260502120304 18 251 25.7 33.8 0.00 0.00 0.00 61 1014.2
20260502120104 17 256 27.4 33.8 0.00 0.00 0.00 61 1014.1
20260502114804 18 249 29.0 33.8 0.00 0.00 0.00 60 1014.3
20260502114556 17 252 24.1 37.0 0.00 0.00 0.00 60 1014.4
20260502114304 18 255 29.0 35.4 0.00 0.00 0.00 60 1014.4
20260502113804 18 247 27.4 33.8 0.00 0.00 0.00 61 1014.3
20260502113304 17 262 24.1 35.4 0.00 0.00 0.00 61 1014.4
20260502113100 17 242 24.1 37.0 0.00 0.00 0.00 61 1014.4
20260502111804 18 246 29.0 35.4 0.00 0.00 0.00 60 1014.5
20260502111601 18 241 27.4 35.4 0.00 0.00 0.00 59 1014.4
20260502110804 18 249 29.0 33.8 0.00 0.00 0.00 61 1014.6
20260502110304 17 253 24.1 33.8 0.00 0.00 0.00 60 1014.6
20260502104804 18 251 20.9 32.2 0.00 0.00 0.00 59 1014.6
20260502104557 18 252 24.1 37.0 0.00 0.00 0.00 58 1014.7
20260502104304 18 247 27.4 33.8 0.00 0.00 0.00 59 1014.7
20260502103304 17 249 27.4 35.4 0.00 0.00 0.00 61 1014.9
20260502103106 17 253 22.5 37.0 0.00 0.00 0.00 60 1014.9
20260502101804 17 240 25.7 32.2 0.00 0.00 0.00 61 1015.1
20260502101621 17 245 22.5 35.4 0.00 0.00 0.00 60 1014.9
20260502100804 17 255 25.7 35.4 0.00 0.00 0.00 59 1015.3
20260502100304 17 246 25.7 37.0 0.00 0.00 0.00 59 1015.4
20260502100116 17 244 27.4 38.6 0.00 0.00 0.00 59 1015.3
20260502091304 17 255 27.4 38.6 0.00 0.00 0.00 62 1015.7
20260502090804 17 233 27.4 40.2 0.00 0.00 0.00 63 1015.7
20260502090304 16 252 27.4 35.4 0.00 0.00 0.00 63 1015.7
20260502080109 16 229 22.5 37.0 0.00 0.00 0.00 60 1016.0
20260502071304 16 245 25.7 35.4 0.00 0.00 0.00 64 1016.0
20260502070804 16 244 20.9 32.2 0.00 0.00 0.00 65 1016.1
20260502070305 16 255 22.5 32.2 0.00 0.00 0.00 64 1016.2
20260502070057 16 264 19.3 32.2 0.00 0.00 0.00 64 1016.2
20260502064804 15 236 20.9 33.8 0.00 0.00 0.00 68 1016.1
20260502064600 15 239 20.9 30.6 0.00 0.00 0.00 68 1016.2
20260502064304 15 242 16.1 25.7 0.00 0.00 0.00 69 1016.3
20260502063804 15 227 22.5 32.2 0.00 0.00 0.00 70 1016.3
20260502063304 15 237 16.1 32.2 0.00 0.00 0.00 71 1016.4
20260502063104 14 249 14.5 27.4 0.00 0.00 0.00 71 1016.3
20260502061558 13 236 20.9 35.4 0.00 0.00 0.00 71 1016.4
20260502061304 14 242 16.1 22.5 0.00 0.00 0.00 72 1016.7
20260502060804 13 222 20.9 32.2 0.00 0.00 0.00 72 1016.6
20260502060306 13 227 19.3 32.2 0.00 0.00 0.00 71 1016.6
20260502060111 13 235 19.3 32.2 0.00 0.00 0.00 71 1016.6
20260502054804 13 235 22.5 29.0 0.00 0.00 0.00 72 1016.7
20260502054603 13 239 19.3 29.0 0.00 0.00 0.00 72 1016.6
20260502054304 13 232 20.9 29.0 0.00 0.00 0.00 73 1016.8
20260502053804 13 227 19.3 29.0 0.00 0.00 0.00 73 1016.8
20260502053305 13 229 19.3 27.4 0.00 0.00 0.00 74 1016.8
20260502053107 12 235 16.1 25.7 0.00 0.00 0.00 74 1016.7
20260502051804 12 236 20.9 32.2 0.00 0.00 0.00 76 1016.9
20260502051603 12 225 17.7 30.6 0.00 0.00 0.00 76 1016.9
20260502051304 12 233 19.3 32.2 0.00 0.00 0.00 77 1017.0
20260502050804 12 224 16.1 25.7 0.00 0.00 0.00 78 1017.0
20260502050304 12 220 20.9 27.4 0.00 0.00 0.00 78 1017.1
20260502050100 11 225 19.3 27.4 0.00 0.00 0.00 78 1017.0
20260502044804 11 218 19.3 24.1 0.00 0.00 0.00 79 1017.2
20260502044559 11 230 19.3 29.0 0.00 0.00 0.00 78 1017.2
20260502044304 11 220 20.9 24.1 0.00 0.00 0.00 79 1017.2
20260502043804 11 216 20.9 29.0 0.00 0.00 0.00 79 1017.3
20260502043304 11 223 20.9 32.2 0.00 0.00 0.00 79 1017.4
20260502043114 11 206 19.3 30.6 0.00 0.00 0.00 79 1017.3
20260502041559 11 212 22.5 27.4 0.00 0.00 0.00 80 1017.5
20260502041304 11 224 20.9 27.4 0.00 0.00 0.00 80 1017.6
20260502040804 11 221 20.9 27.4 0.00 0.00 0.00 81 1017.5
20260502040305 10 218 20.9 27.4 0.00 0.00 0.00 81 1017.5
20260502040055 10 225 17.7 27.4 0.00 0.00 0.00 81 1017.5
20260502034804 10 216 19.3 27.4 0.00 0.00 0.00 82 1017.8
20260502034558 10 221 19.3 25.7 0.00 0.00 0.00 81 1017.8
20260502034304 10 210 20.9 25.7 0.00 0.00 0.00 82 1017.8
20260502033804 10 210 19.3 24.1 0.00 0.00 0.00 82 1017.9
20260502033059 10 214 16.1 24.1 0.00 0.00 0.00 82 1018.0
20260502031804 10 215 17.7 22.5 0.00 0.00 0.00 82 1018.1
20260502031557 10 217 17.7 22.5 0.00 0.00 0.00 82 1018.2
20260502031304 10 212 17.7 20.9 0.00 0.00 0.00 82 1018.2
20260502030804 10 208 17.7 22.5 0.00 0.00 0.00 82 1018.3
20260502030304 10 211 16.1 20.9 0.00 0.00 0.00 82 1018.4
20260502030100 10 206 14.5 20.9 0.00 0.00 0.00 82 1018.4
20260502024805 10 208 14.5 20.9 0.00 0.00 0.00 82 1018.5
20260502024558 10 209 16.1 20.9 0.00 0.00 0.00 82 1018.5
20260502024304 10 208 14.5 19.3 0.00 0.00 0.00 82 1018.5
20260502023804 10 208 14.5 20.9 0.00 0.00 0.00 82 1018.7
20260502023101 10 212 14.5 20.9 0.00 0.00 0.00 82 1018.8
20260502021804 10 213 16.1 22.5 0.00 0.00 0.00 82 1018.9
20260502021601 10 218 16.1 22.5 0.00 0.00 0.00 82 1018.8
20260502020804 10 205 16.1 20.9 0.00 0.00 0.00 82 1019.0
20260502020304 10 198 14.5 19.3 0.00 0.00 0.00 82 1019.1
20260502020058 10 205 14.5 19.3 0.00 0.00 0.00 81 1019.0
20260502014804 10 199 14.5 19.3 0.00 0.00 0.00 81 1019.4
20260502014558 10 202 16.1 19.3 0.00 0.00 0.00 81 1019.3
20260502013804 10 202 14.5 19.3 0.00 0.00 0.00 81 1019.5
20260502013304 10 206 16.1 19.3 0.00 0.00 0.00 81 1019.5
20260502013059 10 200 16.1 19.3 0.00 0.00 0.00 80 1019.6
20260502011804 10 202 14.5 19.3 0.00 0.00 0.00 80 1019.8
20260502011610 9 205 12.9 19.3 0.00 0.00 0.00 80 1019.8
20260502011304 10 202 14.5 19.3 0.00 0.00 0.00 80 1019.8
20260502010804 9 203 14.5 19.3 0.00 0.00 0.00 79 1019.9
20260502010304 9 205 14.5 19.3 0.00 0.00 0.00 79 1020.0
20260502010058 9 203 14.5 19.3 0.00 0.00 0.00 78 1020.0
20260502004804 9 206 12.9 16.1 0.00 0.00 0.00 78 1020.2
20260502004606 9 208 11.3 14.5 0.00 0.00 0.00 77 1020.2
20260502004304 9 206 11.3 14.5 0.00 0.00 0.00 77 1020.3
20260502003804 9 203 11.3 12.9 0.00 0.00 0.00 77 1020.4
20260502003305 9 203 9.7 16.1 0.00 0.00 0.00 76 1020.5
20260502003101 9 210 9.7 16.1 0.00 0.00 0.00 75 1020.4
20260502001805 10 208 12.9 14.5 0.00 0.00 0.00 76 1020.5
20260502001557 10 212 11.3 16.1 0.00 0.00 0.00 76 1020.5
20260502001304 10 204 12.9 16.1 0.00 0.00 0.00 76 1020.5
20260502000304 10 201 11.3 19.3 0.00 0.00 0.00 76 1020.6
20260502000113 10 210 12.9 17.7 0.00 0.00 0.00 75 1020.6
20260501234804 10 206 12.9 16.1 0.00 0.00 0.00 75 1020.8
20260501234559 10 217 12.9 16.1 0.00 0.00 0.00 74 1020.6
20260501234305 10 199 12.9 14.5 0.00 0.00 0.00 75 1020.7
20260501233804 11 208 12.9 14.5 0.00 0.00 0.00 75 1020.8
20260501233305 11 211 11.3 19.3 0.00 0.00 0.00 75 1020.9
20260501233058 10 218 12.9 19.3 0.00 0.00 0.00 74 1020.7
20260501231804 10 216 11.3 16.1 0.00 0.00 0.00 73 1021.0
20260501231606 10 219 9.7 17.7 0.00 0.00 0.00 72 1021.1
20260501231304 11 212 11.3 16.1 0.00 0.00 0.00 72 1021.1
20260501230804 11 212 11.3 19.3 0.00 0.00 0.00 72 1021.0
20260501230305 11 215 11.3 19.3 0.00 0.00 0.00 72 1021.1
20260501230057 11 227 9.7 16.1 0.00 0.00 0.00 72 1021.1
20260501224804 12 227 12.9 19.3 0.00 0.00 0.00 72 1021.2
20260501224603 11 242 12.9 22.5 0.00 0.00 0.00 71 1021.1
20260501224304 12 231 16.1 20.9 0.00 0.00 0.00 71 1021.3
20260501223804 12 227 14.5 19.3 0.00 0.00 0.00 71 1021.3
20260501223304 12 234 16.1 22.5 0.00 0.00 0.00 70 1021.3
20260501223114 12 228 12.9 20.9 0.00 0.00 0.00 70 1021.3
20260501221804 12 232 16.1 24.1 0.00 0.00 0.00 70 1021.4
20260501221617 12 217 14.5 27.4 0.00 0.00 0.00 69 1021.3
20260501221304 12 240 16.1 24.1 0.00 0.00 0.00 69 1021.3
20260501220826 12 235 17.7 24.1 0.00 0.00 0.00 69 1021.4
20260501220057 12 234 19.3 25.7 0.00 0.00 0.00 68 1021.3
20260501214557 12 210 16.1 22.5 0.00 0.00 0.00 67 1021.5
20260501214304 12 228 16.1 20.9 0.00 0.00 0.00 67 1021.5
20260501213804 12 227 17.7 22.5 0.00 0.00 0.00 67 1021.6
20260501213304 12 231 19.3 24.1 0.00 0.00 0.00 66 1021.7
20260501213057 12 223 17.7 22.5 0.00 0.00 0.00 66 1021.6
20260501211804 12 224 16.1 20.9 0.00 0.00 0.00 65 1021.9
20260501211559 12 226 16.1 20.9 0.00 0.00 0.00 64 1021.8
20260501211306 12 225 16.1 20.9 0.00 0.00 0.00 65 1022.0
20260501210804 12 222 16.1 20.9 0.00 0.00 0.00 64 1022.0
20260501210304 12 224 16.1 22.5 0.00 0.00 0.00 64 1022.0
20260501210057 12 239 17.7 22.5 0.00 0.00 0.00 63 1022.0
20260501204804 12 227 14.5 20.9 0.00 0.00 0.00 64 1022.2
20260501204556 12 227 14.5 24.1 0.00 0.00 0.00 63 1022.0
20260501204304 12 227 17.7 24.1 0.00 0.00 0.00 64 1022.1
20260501203804 12 225 19.3 22.5 0.00 0.00 0.00 64 1022.2
20260501203304 12 222 17.7 22.5 0.00 0.00 0.00 64 1022.2
20260501203056 11 223 16.1 22.5 0.00 0.00 0.00 64 1022.3
20260501201804 11 220 19.3 20.9 0.00 0.00 0.00 66 1022.5
20260501201556 11 212 17.7 20.9 0.00 0.00 0.00 66 1022.4
20260501201304 11 222 19.3 20.9 0.00 0.00 0.00 66 1022.4
20260501200805 11 221 16.1 19.3 0.00 0.00 0.00 66 1022.6
20260501200304 11 218 16.1 19.3 0.00 0.00 0.00 66 1022.6
20260501200056 11 215 14.5 17.7 0.00 0.00 0.00 65 1022.5
20260501194804 11 207 12.9 14.5 0.00 0.00 0.00 65 1022.7
20260501194557 11 210 11.3 16.1 0.00 0.00 0.00 65 1022.7
20260501193804 11 214 12.9 16.1 0.00 0.00 0.00 64 1022.9
20260501193057 11 214 9.7 14.5 0.00 0.00 0.00 63 1022.9
20260501191804 12 215 8.0 11.3 0.00 0.00 0.00 61 1023.0
20260501191558 12 215 8.0 14.5 0.00 0.00 0.00 60 1022.9
20260501191304 12 222 8.0 14.5 0.00 0.00 0.00 60 1023.1
20260501190804 13 228 8.0 14.5 0.00 0.00 0.00 59 1023.1
20260501190116 13 219 12.9 16.1 0.00 0.00 0.00 58 1023.0
20260501184804 13 227 11.3 14.5 0.00 0.00 0.00 58 1023.2
20260501184558 13 224 8.0 14.5 0.00 0.00 0.00 57 1023.1
20260501184304 14 224 11.3 14.5 0.00 0.00 0.00 57 1023.2
20260501183804 14 225 9.7 14.5 0.00 0.00 0.00 56 1023.1
20260501183304 14 228 8.0 14.5 0.00 0.00 0.00 56 1023.2
20260501183101 14 221 6.4 14.5 0.00 0.00 0.00 55 1023.2